SCP
0 0 0 0 0 0 0 0 0 0 0 0 0 0 0 0 0 0 0 0 0 0 0 0 0 0 0 0 0 0 0 0 0 0 0 0 0 0
0 0 0 0 0 0 0 0 0 0 0 0 0 0 0 0 0 0 0 0 0 0 0 0 0 0 0 0 0 0 0 0 0 0 0 0 0 0
0 0 0 0 0 0 0 0 0 0 0 0 0 0 0 0 0 0 0 0 0 0 0 0 0 0 0 0 0 0 0 0 0 0 0 0 0 0
0 0 0 0 0 0 0 0 0 0 0 0 0 0 0 0 0 0 0 0 0 0 0 0 0 0 0 0 0 0 0 0 0 0 0 0 0 0
0 0 0 0 0 0 0 0 0 0 0 0 0 0 0 0 0 0 0 0 0 0 0 0 0 0 0 0 0 0 0 0 0 0 0 0 0 0
0 0 0 0 0 0 0 0 0 0 0 0 0 0 0 0 0 0 0 0 0 0 0 0 0 0 0 0 0 0 0 0 0 0 0 0 0 0
0 0 0 0 0 0 0 0 0 0 0 0 0 0 0 0 0 0 0 0 0 0 0 0 0 0 0 0 0 0 0 0 0 0 0 0 0 0
0 0 0 0 0 0 0 0 0 0 0 0 0 0 0 0 0 0 0 0 0 0 0 0 0 0 0 0 0 0 0 0 0 0 0 0 0 0
0 0 0 0 0 0 0 0 0 0 0 0 0 0 0 0 0 0 0 0 0 0 0 0 0 0 0 0 0 0 0 0 0 0 0 0 0 0
0 0 0 0 0 0 0 0 0 0 0 0 0 0 0 0 0 0 0 0 0 0 0 0 0 0 0 0 0 0 0 0 0 0 0 0 0 0
0 0 0 0 0 0 0 0 0 0 0 0 0 0 0 0 0 0 0 0 0 0 0 0 0 0 0 0 0 0 0 0 0 0 0 0 0 0
0 0 0 0 0 0 0 0 0 0 0 0 0 0 0 0 0 0 0 0 0 0 0 0 0 0 0 0 0 0 0 0 0 0 0 0 0 0
0 0 0 0 0 0 0 0 0 0 0 0 0 0 0 0 0 0 0 0 0 0 0 0 0 0 0 0 0 0 0 0 0 0 0 0 0 0
0 0 0 0 0 0 0 0 0 0 0 0 0 0 0 0 0 0 0 0 0 0 0 0 0 0 0 0 0 0 0 0 0 0 0 0 0 0
0 0 0 0 0 0 0 0 0 0 0 0 0 0 0 0 0 0 0 0 0 0 0 0 0 0 0 0 0 0 0 0 0 0 0 0 0 0
0 0 0 0 0 0 0 0 0 0 0 0 0 0 0 0 0 0 0 0 0 0 0 0 0 0 0 0 0 0 0 0 0 0 0 0 0 0
0 0 0 0 0 0 0 0 0 0 0 0 0 0 0 0 0 0 0 0 0 0 0 0 0 0 0 0 0 0 0 0 0 0 0 0 0 0
0 0 0 0 0 0 0 0 0 0 0 0 0 0 0 0 0 0 0 0 0 0 0 0 0 0 0 0 0 0 0 0 0 0 0 0 0 0
0 0 0 0 0 0 0 0 0 0 0 0 0 0 0 0 0 0 0 0 0 0 0 0 0 0 0 0 0 0 0 0 0 0 0 0 0 0
0 0 0 0 0 0 0 0 0 0 0 0 0 0 0 0 0 0 0 0 0 0 0 0 0 0 0 0 0 0 0 0 0 0 0 0 0 0
0 0 0 0 0 0 0 0 0 0 0 0 0 0 0 0 0 0 0 0 0 0 0 0 0 0 0 0 0 0 0 0 0 0 0 0 0 0
0 0 0 0 0 0 0 0 0 0 0 0 0 0 0 0 0 0 0 0 0 0 0 0 0 0 0 0 0 0 0 0 0 0 0 0 0 0
0 0 0 0 0 0 0 0 0 0 0 0 0 0 0 0 0 0 0 0 0 0 0 0 0 0 0 0 0 0 0 0 0 0 0 0 0 0
Wind_Speed
2 3 2 2 1 2 2 2 2 4 4 3 3 2 2 1 2 3 3 6 8 9 10 10 11 12 12 12 12 12 12 12 12 12 13 13 13 14
2 2 2 1 1 2 2 2 2 3 4 3 3 3 2 3 3 3 4 8 10 11 11 11 12 12 13 13 13 13 13 13 12 12 13 13 14 14
2 2 2 2 2 2 2 2 2 2 4 4 3 3 3 3 3 4 4 5 6 11 11 12 12 13 13 13 13 13 13 13 13 13 13 13 13 13
2 2 2 2 2 2 2 3 3 3 3 4 4 4 4 3 3 4 4 5 4 8 11 11 11 12 12 12 12 12 13 13 13 13 13 12 12 12
2 2 2 2 2 2 3 3 2 3 3 3 4 3 3 3 3 4 4 3 4 5 7 8 9 10 10 11 12 12 12 12 12 12 12 12 12 11
2 2 2 2 2 3 3 3 3 3 3 3 3 3 3 3 2 2 3 2 3 3 3 4 7 8 9 10 11 11 12 12 12 12 12 11 11 11
2 2 2 1 2 3 3 2 3 3 3 3 3 3 3 3 2 2 3 2 2 2 1 2 2 3 4 6 8 10 11 11 11 11 11 11 11 11
2 2 2 2 2 2 3 3 3 3 4 3 3 3 3 3 3 3 2 2 2 2 1 2 1 2 2 2 5 7 8 10 10 11 11 11 11 11
2 2 3 2 0 1 1 2 3 5 5 3 3 4 4 3 2 3 3 3 3 3 1 2 2 2 2 2 3 6 7 7 8 8 9 10 10 10
2 2 1 1 2 2 2 2 3 3 4 3 2 3 3 3 3 3 3 3 3 2 1 2 2 1 2 1 2 4 6 6 7 7 7 8 9 9
2 2 0 1 1 2 2 3 3 3 4 4 4 4 5 5 4 2 2 2 3 2 1 1 1 1 1 1 2 3 4 5 6 7 6 6 7 7
2 0 1 0 0 1 2 2 3 4 4 4 4 4 4 4 4 3 2 2 2 2 2 1 1 1 1 1 0 1 2 3 5 6 6 6 6 4
2 1 0 0 1 3 3 3 4 5 5 5 3 2 2 1 2 2 2 2 2 2 2 1 2 1 1 1 1 1 2 1 2 3 5 6 6 5
2 1 1 2 3 4 4 4 6 6 4 3 2 2 1 1 1 2 2 2 3 3 3 2 1 1 2 2 2 1 1 1 1 1 2 4 5 6
2 3 3 4 5 4 5 6 5 3 2 2 2 2 2 2 2 1 2 2 2 2 2 1 1 1 1 2 2 1 1 1 1 1 1 2 2 3
3 4 6 6 5 5 4 3 3 2 1 1 2 2 2 2 2 1 1 1 1 1 1 1 0 1 2 2 2 2 1 1 1 1 1 1 2 3
3 3 3 3 2 2 2 2 1 1 1 1 1 2 2 2 2 2 2 2 2 2 2 1 1 1 1 2 2 2 1 1 1 1 1 1 1 2
1 2 3 2 2 2 1 1 1 1 1 1 2 2 2 2 2 2 2 2 2 2 2 2 1 1 2 2 1 2 1 1 2 1 1 1 1 1
1 2 2 2 2 2 1 1 1 1 1 1 2 2 2 2 2 2 2 2 2 2 2 2 2 2 2 3 2 1 2 2 2 1 1 1 1 1
2 2 2 2 2 2 2 2 2 1 1 1 2 2 2 2 2 2 2 2 2 2 2 2 1 1 1 2 2 3 3 1 1 1 1 1 1 1
2 2 2 1 2 2 1 1 1 1 1 1 1 2 2 2 2 2 2 3 3 2 3 2 2 2 1 1 1 2 2 2 1 1 1 1 1 1
2 2 2 2 1 1 1 1 1 1 1 1 1 2 2 2 3 3 3 3 3 3 3 2 2 2 1 1 1 2 1 1 2 2 1 0 1 1
1 1 1 2 2 2 2 2 3 2 2 2 2 2 2 2 2 2 3 3 3 3 3 3 2 2 2 2 1 1 2 1 1 0 1 2 1 2
Wind_Direction
251 258 263 267 290 288 281 267 274 288 285 282 285 266 230 219 215 235 231 225 231 234 231 228 228 230 233 231 231 230 230 229 229 232 232 231 232 232
249 255 264 274 281 282 287 288 274 268 283 281 287 292 292 276 244 242 246 233 233 235 231 228 227 228 230 231 230 228 228 227 227 230 232 231 231 232
266 261 257 264 282 286 284 282 276 271 277 284 278 279 272 271 271 256 255 240 234 234 232 229 228 228 228 229 229 227 226 225 226 228 231 232 232 230
253 251 250 267 288 292 291 288 284 272 266 280 284 281 272 259 254 264 269 258 244 238 232 228 227 227 226 227 226 226 224 223 224 225 226 227 229 230
257 246 249 256 274 274 275 278 282 290 276 272 280 276 276 274 272 272 276 270 269 251 232 227 231 231 227 227 225 224 222 221 221 221 222 224 226 228
276 263 251 251 267 278 279 277 283 286 279 270 273 283 284 284 279 273 285 290 294 291 262 238 232 230 232 232 227 223 221 220 220 220 221 223 224 225
276 261 253 244 266 279 288 295 296 294 293 289 287 290 291 305 301 287 288 294 279 281 282 266 234 229 229 233 232 227 223 221 219 218 219 221 223 224
273 273 257 232 233 264 277 282 284 291 302 299 296 292 292 297 303 312 306 303 298 278 271 287 270 246 242 226 219 217 221 220 218 218 219 220 222 223
275 282 291 318 12 338 303 289 294 278 270 269 286 293 297 299 308 302 301 299 289 281 280 284 288 285 271 276 216 209 212 215 216 216 218 218 219 221
279 276 272 309 350 1 325 334 327 310 288 273 265 281 294 297 282 282 286 299 289 280 262 284 282 294 310 318 226 215 220 217 217 215 213 218 220 222
279 293 262 114 46 356 338 333 322 312 303 296 282 273 276 273 269 269 276 290 305 300 284 258 277 288 284 271 247 232 233 222 217 219 216 219 223 221
280 254 71 121 146 305 309 311 308 309 317 309 287 272 262 266 259 236 243 267 291 298 293 289 285 315 301 271 243 231 248 237 224 222 220 217 214 209
313 336 39 171 275 290 290 284 283 293 295 287 275 267 256 255 241 231 228 233 260 279 276 275 283 287 270 287 279 236 216 214 212 230 223 215 204 197
310 329 340 313 305 296 290 287 292 296 287 293 297 293 287 279 274 258 242 242 237 247 263 272 279 288 300 298 301 285 245 226 211 216 200 194 205 210
288 297 293 284 292 284 269 278 287 282 288 300 310 319 315 298 282 275 259 254 261 266 278 262 279 301 294 287 287 279 281 273 232 213 179 167 185 192
288 289 281 266 257 261 270 261 252 260 276 299 316 318 322 323 318 327 331 321 304 292 291 308 306 313 298 288 280 286 283 257 240 230 208 211 197 194
315 289 276 268 256 250 257 265 262 256 307 324 327 331 326 315 317 333 335 331 329 321 319 308 270 259 281 292 291 293 300 295 261 224 230 253 224 205
309 283 286 290 297 281 275 291 326 352 350 327 321 325 320 320 330 336 331 332 326 317 323 329 342 323 313 350 329 306 318 311 304 278 231 240 265 227
278 282 298 315 317 315 326 330 338 6 9 343 333 332 324 327 332 326 322 328 323 319 328 334 337 331 327 325 333 350 313 302 309 317 314 297 258 246
258 283 298 312 329 339 357 356 354 0 3 345 341 331 329 331 325 318 316 325 317 317 317 319 329 326 315 305 309 318 314 298 307 306 310 340 354 237
283 282 301 322 342 341 354 358 358 356 356 350 335 333 331 323 318 317 321 322 313 312 313 308 293 295 292 316 322 324 339 0 2 275 300 301 298 290
329 337 344 347 347 356 8 20 6 1 351 351 346 342 333 328 329 335 330 323 318 322 329 328 335 343 339 333 318 315 321 347 30 49 31 22 207 224
327 331 338 355 359 10 10 5 3 2 356 347 342 332 327 329 326 328 327 332 340 342 338 333 346 356 346 343 336 324 322 317 306 297 357 336 250 219